Location: Nelson
(41.2830°S, 173.2830°E)
Time: 14:14:12
(UTC+13:00)

NOAA 11 - Pass Details

Date: 24 January 2019
Orbit: 832 x 850 km, 98.5° (Epoch: 19 February)

Event Time Altitude Azimuth Distance (km) Brightness Sun altitude
Rises 21:29:17 0° 162° (SSE) 3,449 7.6 -6.4°
Reaches altitude 10° 21:31:46 10° 156° (SSE) 2,508 6.8 -6.8°
Maximum altitude 21:37:10 49° 81° (E) 1,096 4.5 -7.6°
Drops below altitude 10° 21:42:29 10° 6° (N) 2,480 6.3 -8.5°
Sets 21:44:55 0° 0° (N) 3,407 7.0 -8.8°
